FLOCK 3P-59

Last updated on Feb. 14, 2018, 4:20 p.m. UTC

1 42022U 17008CC  18045.16862254  .00002276  00000-0  96780-4 0  9999
2 42022  97.4661 110.7184 0009523  73.1000 287.1281 15.24034218 54230
UTC
Height (km)
Latitude
Longitude
Inclination
Orbital Period
UTC large
Height (km)
Speed (km/s)
/
Latitude / Longitude
Inclination (degrees)
Orbital Period (minutes)
Azimuth
Elevation
Range (km)
Doppler Factor
iOS Compass Heading
iOS Angle